Location: Henham
(51.9333°N, 0.2500°E)
Time: 21:37:53
(UTC+00:00)

STARLINK-81 - Pass Details

Date: 23 October 2019
Orbit: 548 x 551 km, 53.0° (Epoch: 16 November)

Event Time Altitude Azimuth Distance (km) Brightness Sun altitude
Rises 17:28:58 0° 270° (W) 2,717 9.3 -6.8°
Reaches altitude 10° 17:31:12 10° 272° (W) 1,824 7.9 -7.2°
Maximum altitude 17:35:21 75° 359° (N) 573 3.7 -7.8°
Enters shadow 17:39:20 11° 85° (E) 1,762 5.5 -8.4°
